KC3BAN-3 Weather Reports


time (UTC)temp
C
wind
direction
speed
KPH
gust
KPH
rain 1hr
cm
rain 24hr
cm
rain mn
cm
humidity
%
barometer
mb
20260503224830 13 167 8.0 11.3 0.00 0.00 0.00 68 1016.9
20260503224329 12 165 8.0 12.9 0.00 0.00 0.00 67 1016.9
20260503223830 13 153 8.0 12.9 0.00 0.00 0.00 68 1016.9
20260503223540 13 198 8.0 14.5 0.00 0.00 0.00 68 1016.9
20260503222829 13 163 9.7 14.5 0.00 0.00 0.00 67 1016.9
20260503222329 13 175 8.0 12.9 0.00 0.00 0.00 67 1016.9
20260503221830 13 119 9.7 12.9 0.00 0.00 0.00 69 1016.9
20260503221329 13 176 8.0 12.9 0.00 0.00 0.00 67 1016.9
20260503220832 13 209 8.0 12.9 0.00 0.00 0.00 66 1016.9
20260503220331 13 151 9.7 12.9 0.00 0.00 0.00 66 1016.9
20260503215829 13 120 9.7 14.5 0.00 0.00 0.00 67 1017.0
20260503215332 13 120 8.0 14.5 0.00 0.00 0.00 65 1016.9
20260503215041 13 131 8.0 14.5 0.00 0.00 0.00 66 1016.8
20260503214328 13 137 8.0 11.3 0.00 0.00 0.00 66 1017.0
20260503213825 13 130 8.0 11.3 0.00 0.00 0.00 67 1016.9
20260503213316 13 68 8.0 11.3 0.00 0.00 0.00 67 1016.8
20260503212811 13 141 8.0 11.3 0.00 0.00 0.00 67 1016.8
20260503212306 13 115 9.7 12.9 0.00 0.00 0.00 67 1016.7
20260503211805 13 110 9.7 12.9 0.00 0.00 0.00 67 1016.6
20260503211516 13 151 9.7 14.5 0.00 0.00 0.00 68 1016.7
20260503211015 13 136 8.0 14.5 0.00 0.00 0.00 66 1016.6
20260503210304 13 127 8.0 12.9 0.00 0.03 0.00 67 1016.6
20260503205804 14 112 8.0 14.5 0.00 0.03 0.00 65 1016.5
20260503205304 14 129 8.0 14.5 0.00 0.03 0.00 66 1016.4
20260503204804 14 106 8.0 12.9 0.00 0.03 0.00 64 1016.5
20260503204555 13 129 9.7 12.9 0.00 0.03 0.00 66 1016.5
20260503204520 13 129 9.7 12.9 0.00 0.03 0.00 66 1016.5
20260503203804 13 115 8.0 12.9 0.00 0.03 0.00 64 1016.6
20260503203516 14 75 9.7 12.9 0.00 0.03 0.00 67 1016.6
20260503202804 13 110 9.7 14.5 0.00 0.03 0.00 66 1016.6
20260503202301 14 113 9.7 14.5 0.00 0.03 0.00 66 1016.6
20260503202014 14 109 9.7 14.5 0.00 0.03 0.00 66 1016.6
20260503201302 14 146 9.7 14.5 0.00 0.03 0.00 65 1016.6
20260503200805 14 157 9.7 14.5 0.00 0.03 0.00 64 1016.6
20260503200304 14 129 8.0 12.9 0.00 0.05 0.00 64 1016.8
20260503195803 15 135 8.0 12.9 0.00 0.05 0.00 65 1016.9
20260503195257 15 97 8.0 12.9 0.00 0.05 0.00 66 1017.0
20260503194752 15 94 8.0 12.9 0.00 0.05 0.00 63 1017.1
20260503194246 15 155 8.0 11.3 0.00 0.05 0.00 65 1017.0
20260503193741 15 167 8.0 12.9 0.00 0.05 0.00 63 1017.0
20260503193234 16 111 6.4 16.1 0.00 0.05 0.00 60 1017.1
20260503192943 16 208 4.8 16.1 0.00 0.05 0.00 50 1017.1
20260503192231 16 277 8.0 17.7 0.00 0.05 0.00 49 1017.0
20260503191731 16 314 9.7 17.7 0.00 0.05 0.00 52 1016.9
20260503191235 16 305 9.7 16.1 0.00 0.05 0.00 49 1017.0
20260503190734 16 307 11.3 17.7 0.00 0.05 0.00 49 1017.1
20260503190233 16 278 9.7 17.7 0.00 0.05 0.00 49 1017.1
20260503185946 16 330 8.0 20.9 0.00 0.05 0.00 50 1017.1
20260503185230 16 311 11.3 20.9 0.00 0.05 0.00 49 1017.2
20260503184731 16 302 11.3 20.9 0.00 0.05 0.00 48 1017.3
20260503184230 16 268 9.7 20.9 0.00 0.05 0.00 49 1017.2
20260503183732 16 324 11.3 19.3 0.00 0.05 0.00 51 1017.3
20260503183231 15 314 14.5 25.7 0.00 0.05 0.00 49 1017.3
20260503182944 16 311 12.9 25.7 0.00 0.05 0.00 49 1017.3
20260503182232 16 275 12.9 22.5 0.00 0.05 0.00 50 1017.3
20260503181731 15 313 11.3 19.3 0.00 0.05 0.00 48 1017.3
20260503181443 16 354 11.3 20.9 0.00 0.05 0.00 49 1017.4
20260503180955 16 311 11.3 20.9 0.00 0.05 0.00 47 1017.4
20260503180731 16 311 11.3 20.9 0.00 0.05 0.00 47 1017.4
20260503180231 16 320 11.3 22.5 0.00 0.05 0.00 48 1017.4
20260503175731 16 274 12.9 22.5 0.00 0.05 0.00 47 1017.2
20260503175444 15 328 14.5 20.9 0.00 0.05 0.00 51 1017.3
20260503174953 15 279 14.5 25.7 0.00 0.05 0.00 47 1017.3
20260503174445 15 313 12.9 25.7 0.00 0.08 0.00 48 1017.3
20260503173944 15 326 11.3 20.9 0.00 0.08 0.00 48 1017.3
20260503173447 15 315 11.3 22.5 0.00 0.08 0.00 50 1017.4
20260503172944 16 288 12.9 22.5 0.00 0.08 0.00 50 1017.4
20260503172231 15 319 12.9 22.5 0.00 0.08 0.00 50 1017.4
20260503171731 15 316 9.7 22.5 0.00 0.08 0.00 49 1017.4
20260503171232 15 319 9.7 20.9 0.00 0.08 0.00 50 1017.4
20260503170731 15 313 11.3 20.9 0.00 0.08 0.00 51 1017.5
20260503170231 15 308 11.3 22.5 0.00 0.08 0.00 48 1017.5
20260503150718 13 338 16.1 27.4 0.00 0.15 0.00 54 1017.5
20260503150212 13 28 17.7 29.0 0.00 0.15 0.00 55 1017.5
20260503131155 12 322 14.5 22.5 0.00 0.18 0.00 60 1017.0
20260503130908 12 342 16.1 33.8 0.00 0.20 0.00 62 1017.1
20260503130156 12 46 16.1 33.8 0.00 0.20 0.00 67 1016.9
20260503120152 12 312 16.1 32.2 0.00 0.23 0.00 67 1016.0
20260503110648 11 352 6.4 11.3 0.00 0.33 0.00 79 1015.3
20260503110148 11 335 6.4 11.3 0.00 0.33 0.00 80 1015.3
20260503100144 11 330 8.0 14.5 0.00 0.56 0.00 77 1014.2
20260503090136 11 346 9.7 17.7 0.00 0.81 0.00 76 1013.7
20260503081132 11 332 12.9 22.5 0.00 0.99 0.00 74 1013.2
20260503080846 11 1 11.3 22.5 0.00 0.99 0.00 75 1013.2
20260503080134 11 308 11.3 20.9 0.00 0.99 0.00 75 1013.1
20260503072844 11 313 11.3 22.5 0.00 0.99 0.00 75 1012.6
20260503072130 11 319 11.3 20.9 0.00 0.99 0.00 76 1012.5
20260503071631 11 304 11.3 25.7 0.00 0.99 0.00 76 1012.4
20260503071344 11 338 11.3 25.7 0.00 0.99 0.00 76 1012.3
20260503070633 11 328 9.7 20.9 0.00 0.99 0.00 75 1012.3
20260503070133 11 320 11.3 20.9 0.00 0.99 0.00 75 1012.1
20260503060106 12 328 9.7 17.7 0.00 0.99 0.00 76 1011.5
20260503055104 12 350 8.0 16.1 0.00 0.99 0.00 77 1011.6
20260503054601 12 306 8.0 14.5 0.00 0.99 0.00 77 1011.7
20260503054101 12 311 8.0 14.5 0.00 0.99 0.00 77 1011.7
20260503053814 12 300 8.0 14.5 0.00 0.99 0.00 78 1011.7
20260503053101 12 343 8.0 16.1 0.00 0.99 0.00 78 1011.7
20260503052602 12 302 8.0 16.1 0.00 0.99 0.00 77 1011.7
20260503052102 12 323 8.0 16.1 0.00 0.99 0.00 77 1011.6
20260503051816 12 321 6.4 14.5 0.00 0.99 0.00 77 1012.0
20260503051101 12 322 6.4 14.5 0.00 0.99 0.00 77 1011.8
20260503050602 12 336 6.4 14.5 0.00 0.99 0.00 77 1011.8
20260503050104 12 315 6.4 14.5 0.00 0.99 0.00 77 1011.9
20260503045813 12 311 6.4 12.9 0.00 0.99 0.00 77 1011.9
20260503045057 12 324 6.4 12.9 0.00 0.99 0.00 77 1011.8
20260503044552 12 341 6.4 11.3 0.00 0.99 0.00 77 1011.7
20260503044044 12 334 6.4 14.5 0.00 1.07 0.00 76 1012.0
20260503043538 12 9 6.4 14.5 0.00 1.09 0.00 76 1011.8
20260503043033 12 325 6.4 11.3 0.00 1.09 0.00 75 1012.0
20260503042534 12 335 8.0 19.3 0.00 1.09 0.00 73 1011.9
20260503042034 12 292 9.7 19.3 0.00 1.09 0.00 72 1012.0
20260503041746 12 350 9.7 19.3 0.00 1.24 0.00 71 1012.1
20260503041034 12 9 9.7 19.3 0.00 1.27 0.00 70 1012.0
20260503040534 12 303 9.7 16.1 0.00 1.30 0.00 70 1011.8
20260503040032 12 323 8.0 17.7 0.00 1.35 0.00 70 1011.8
20260503035748 12 347 9.7 24.1 0.00 1.35 1.35 70 1011.8
20260503035032 13 20 14.5 24.1 0.00 1.37 1.35 72 1011.7
20260503034743 13 354 17.7 29.0 0.00 1.40 1.35 75 1011.7
20260503034031 13 344 19.3 29.0 0.00 1.40 1.35 72 1011.8
20260503033531 13 18 19.3 29.0 0.00 1.40 1.35 72 1011.8
20260503033031 13 41 16.1 25.7 0.00 1.40 1.35 78 1011.6
20260503032531 13 47 16.1 22.5 0.00 1.40 1.35 78 1011.7
20260503032031 13 48 16.1 20.9 0.00 1.40 1.35 76 1011.9
20260503031531 13 34 16.1 22.5 0.00 1.40 1.35 75 1012.0
20260503031032 13 44 17.7 24.1 0.00 1.40 1.35 75 1012.0
20260503030529 13 53 19.3 29.0 0.00 1.40 1.35 74 1012.0
20260503030029 13 60 20.9 29.0 0.00 1.40 1.35 72 1011.7
20260503025529 13 52 20.9 27.4 0.00 1.40 1.35 74 1011.8
20260503025030 12 23 19.3 27.4 0.00 1.42 1.35 74 1011.9
20260503024529 12 33 20.9 27.4 0.00 1.42 1.35 77 1012.0
20260503024031 12 56 19.3 29.0 0.00 1.42 1.35 74 1011.9
20260503023529 12 37 19.3 29.0 0.00 1.42 1.35 76 1012.0
20260503023029 12 34 19.3 29.0 0.00 1.42 1.35 75 1011.8
20260503022529 12 59 20.9 29.0 0.00 1.45 1.35 77 1011.9
20260503022030 12 42 20.9 29.0 0.00 1.45 1.35 77 1011.8
20260503021742 13 1 19.3 29.0 0.00 1.47 1.35 77 1011.7
20260503021029 13 11 19.3 29.0 0.00 1.50 1.35 78 1011.7
20260503020529 13 24 19.3 27.4 0.00 1.50 1.35 78 1011.8
20260503020030 13 51 20.9 27.4 0.00 1.50 1.35 79 1011.8
20260503015528 13 44 19.3 25.7 0.00 1.50 1.35 80 1011.7
20260503015030 13 42 19.3 25.7 0.00 1.50 1.35 80 1011.8
20260503014529 13 70 19.3 27.4 0.00 1.50 1.35 82 1011.9
20260503014025 13 25 19.3 27.4 0.00 1.50 1.35 82 1011.8
20260503013521 12 50 19.3 27.4 0.00 1.50 1.35 82 1012.0
20260503013014 13 37 19.3 27.4 0.00 1.52 1.35 82 1011.8
20260503012507 12 39 19.3 27.4 0.00 1.52 1.35 82 1011.6
20260503012004 13 23 17.7 27.4 0.00 1.52 1.35 82 1011.8
20260503011504 13 62 19.3 29.0 0.00 1.52 1.35 83 1011.6
20260503011007 12 20 19.3 29.0 0.00 1.52 1.35 82 1011.4
20260503010507 12 352 19.3 30.6 0.00 1.52 1.35 83 1011.3
20260503010007 13 30 19.3 30.6 0.00 1.52 1.35 83 1011.3
20260503005504 12 33 19.3 27.4 0.00 1.52 1.35 82 1011.4
20260503005004 12 46 19.3 27.4 0.00 1.52 1.35 83 1011.3
20260503004502 12 13 19.3 27.4 0.00 1.52 1.35 83 1011.3
20260503004002 12 35 17.7 27.4 0.00 1.52 1.35 84 1011.2
20260503003501 12 15 17.7 25.7 0.00 1.52 1.35 85 1011.1
20260503003002 12 34 16.1 25.7 0.00 1.55 1.35 85 1011.1
20260503002502 12 35 14.5 24.1 0.00 1.55 1.35 86 1011.1
20260503002002 12 2 14.5 22.5 0.00 1.55 1.35 86 1011.0
20260503001501 12 8 12.9 20.9 0.00 1.55 1.35 86 1011.1
20260503001001 12 37 12.9 17.7 0.00 1.55 1.35 86 1011.2
20260503000501 12 348 12.9 17.7 0.00 1.55 1.35 86 1011.0
20260503000001 12 23 12.9 20.9 0.00 1.55 1.35 86 1011.0
20260502235502 12 11 14.5 20.9 0.00 1.55 1.35 86 1010.9
20260502235002 12 40 14.5 19.3 0.00 1.55 1.35 86 1010.7
20260502234501 12 4 14.5 19.3 0.00 1.55 1.35 87 1010.8
20260502234002 12 58 14.5 22.5 0.00 1.55 1.35 87 1010.7
20260502233502 12 44 16.1 22.5 0.00 1.55 1.35 86 1010.7
20260502233002 12 46 14.5 20.9 0.00 1.55 1.35 87 1010.4
20260502232504 12 59 16.1 20.9 0.00 1.55 1.35 87 1010.5
20260502232001 12 69 16.1 20.9 0.00 1.55 1.35 87 1010.4
20260502231716 12 18 16.1 22.5 0.00 1.55 1.35 88 1010.5
20260502231001 12 33 16.1 22.5 0.00 1.55 1.35 87 1010.4
20260502230502 12 46 16.1 22.5 0.00 1.55 1.35 87 1010.5
20260502230003 12 54 14.5 22.5 0.00 1.55 1.35 88 1010.5
20260502225501 12 48 16.1 22.5 0.00 1.55 1.35 88 1010.6